Hourly Data Report for October 16, 2017

All times are specified in Local Standard Time (LST). Add 1 hour to adjust for Daylight Saving Time where and when it is observed.

CLYDE RIVER A
NUNAVUT

70°29'09.000" N
68°31'01.000" W
26.50 m
2400804
71090
YCY

Download Data

Hourly Data (October 2017)
Hourly Data Report for October 16, 2017
Temp Definition
°C
Dew Point Temp Definition
°C
Rel Hum Definition
%
Wind Dir Definition
10's deg

Wind Spd Definition
km/h
Visibility Definition
km
Stn Press Definition
kPa
Hmdx Definition


Wind Chill Definition


Weather Definition


TIME
00:00 Legend Double Dagger -5.8 -7.2 90 29 17 16.1 100.24   -12 Snow
01:00 Legend Double Dagger -5.9 -7.3 90 30 13 16.1 100.24   -11 LegendNANA
02:00 Legend Double Dagger -5.6 -7.4 87 30 17 16.1 100.24   -12 Snow
03:00 Legend Double Dagger -5.8 -7.5 88 30 17 16.1 100.24   -12 Snow
04:00 Legend Double Dagger -5.6 -7.6 86 32 21 14.5 100.21   -12 Snow
05:00 Legend Double Dagger -6.1 -7.3 91 29 17 3.2 100.22   -12 Snow
06:00 Legend Double Dagger -5.6 -6.6 93 30 22 16.1 100.21   -13 Snow
07:00 Legend Double Dagger -5.8 -7.2 90 30 22 16.1 100.22   -13 Snow
08:00 Legend Double Dagger -5.6 -7.1 89 31 18 16.1 100.23   -12 Snow
09:00 Legend Double Dagger -5.6 -7.3 88 31 24 16.1 100.20   -13 LegendNANA
10:00 Legend Double Dagger -5.0 -7.0 86 30 22 12.9 100.18   -12 Snow
11:00 Legend Double Dagger -5.3 -7.4 86 30 21 9.7 100.19   -12 Snow
12:00 Legend Double Dagger -5.2 -6.9 88 30 22 9.7 100.19   -12 Snow
13:00 Legend Double Dagger -5.2 -6.3 92 31 22 4.8 100.20   -12 Snow
14:00 Legend Double Dagger -5.2 -6.5 91 30 18 4.8 100.21   -11 Snow
15:00 Legend Double Dagger -5.2 -6.6 90 31 22 4.8 100.22   -12 Snow
16:00 Legend Double Dagger -5.5 -7.0 89 30 21 16.1 100.24   -12 Snow
17:00 Legend Double Dagger -5.5 -7.4 87 30 15 16.1 100.25   -11 Snow
18:00 Legend Double Dagger -5.6 -7.3 88 29 24 16.1 100.25   -13 LegendNANA
19:00 Legend Double Dagger -5.7 -7.5 87 30 24 16.1 100.24   -13 LegendNANA
20:00 Legend Double Dagger -5.5 -7.5 86 30 24 16.1 100.24   -13 Snow
21:00 Legend Double Dagger -4.9 -7.3 84 31 15 16.1 100.23   -10 Snow
22:00 Legend Double Dagger -5.0 -6.5 89 30 13 16.1 100.23   -10 Snow
23:00 Legend Double Dagger -4.7 -5.5 94 32 21 6.4 100.21   -11 Snow

Notes on Data Quality.

Legend

  • E = Estimated
  • M = Missing
  • NA = Not Available
  • ‡ = Partner data that is not subject to review by the National Climate Archives
Date modified: